INTELSAT 602 (IS-602) 1 20315U 89087A 12040.44207656 .00000029 00000-0 10000-3 0 4242 2 20315 9.0984 54.0673 0001062 256.9186 164.9296 1.00273687 79427 INTELSAT 603 (IS-603) 1 20523U 90021A 12039.74537396 .00000069 00000-0 10000-3 0 9868 2 20523 8.6000 55.6153 0000956 310.2994 52.1545 1.00273835 73170 SBS-6 1 20872U 90091A 12038.90081976 -.00000238 00000-0 10000-3 0 4625 2 20872 4.1096 68.3985 0006842 344.6145 15.5627 0.98994327 66343 INTELSAT 605 (IS-605) 1 21653U 91055A 12039.86529058 -.00000257 00000-0 10000-3 0 2021 2 21653 6.7218 61.3634 0002042 278.7981 81.3289 0.99328027 74907 INTELSAT 601 (IS-601) 1 21765U 91075A 12039.39486333 -.00000331 00000-0 10000-3 0 3027 2 21765 6.7028 60.1400 0003916 254.6139 105.4994 0.99594705 74108 INTELSAT 701 (IS-701) 1 22871U 93066A 12040.83505875 -.00000142 00000-0 10000-3 0 8498 2 22871 0.1958 80.0681 0002732 231.1754 285.6761 1.00271625 66905 INTELSAT 702 (IS-702) 1 23124U 94034A 12039.72777499 .00000123 00000-0 00000-0 0 6712 2 23124 0.5444 79.9884 0001945 252.3891 115.3375 1.00273295 78813 INTELSAT 2 (IS-2) 1 23175U 94040A 12040.49705228 -.00000225 00000-0 00000+0 0 472 2 23175 2.8440 75.4192 0008678 278.6842 81.4873 0.99193522 63697 INTELSAT 704 (IS-704) 1 23461U 95001A 12039.42237483 -.00000302 00000-0 10000-3 0 4006 2 23461 2.4577 71.3536 0003051 300.3397 59.9295 0.99183895 62483 INTELSAT 705 (IS-705) 1 23528U 95013A 12038.80949917 -.00000157 00000-0 00000+0 0 3592 2 23528 2.0271 72.4687 0017230 325.2809 34.9112 0.98975804 61715 INTELSAT 706 (IS-706) 1 23571U 95023A 12040.80101056 -.00000062 00000-0 10000-3 0 4498 2 23571 0.4814 78.6995 0003410 245.6791 175.2519 1.00272503 61279 INTELSAT 3R (IS-3R) 1 23764U 96002A 12039.56877903 -.00000014 00000-0 10000-3 0 1788 2 23764 2.2106 71.3627 0010432 167.5535 192.7968 0.99084251 58859 PAKSAT 1 (ANATOLIA 1) 1 23779U 96006A 12040.84109551 -.00000271 00000-0 00000+0 0 7177 2 23779 0.2357 83.2227 0004564 358.2693 325.0181 0.99596512 58634 INTELSAT 707 (IS-707) 1 23816U 96015A 12041.09624538 -.00000289 00000-0 10000-3 0 3477 2 23816 0.0169 55.7500 0003257 274.8955 150.5740 1.00271329 58287 GALAXY 9 (G-9) 1 23877U 96033A 12040.54195978 -.00000131 00000-0 10000-3 0 5090 2 23877 3.1237 69.9321 0008789 12.6494 347.6479 0.99536636 57529 INTELSAT 709 (IS-709) 1 23915U 96035A 12039.27543072 -.00000061 00000-0 10000-3 0 4827 2 23915 0.0119 212.5037 0002545 120.9687 335.5444 1.00272559 57340 INTELSAT 26 (IS-26) 1 24732U 97007A 12040.10455552 .00000108 00000-0 10000-3 0 1260 2 24732 3.8142 67.8972 0004205 265.0480 253.5788 1.00274898 54762 INTELSAT 801 (IS-801) 1 24742U 97009A 12040.25238392 -.00000218 00000-0 10000-3 0 655 2 24742 3.0384 70.4536 0003037 283.7023 205.9349 1.00271639 54776 GALAXY 25 (G-25) 1 24812U 97026A 12041.11821488 -.00000167 00000-0 10000-3 0 3973 2 24812 0.0091 142.0478 0003065 186.1497 120.8483 1.00272358 53917 INTELSAT 802 (IS-802) 1 24846U 97031A 12040.60861810 .00000002 00000-0 10000-3 0 3373 2 24846 1.0179 73.2265 0026477 176.0556 184.6446 0.98107365 53511 INTELSAT 5 (IS-5) 1 24916U 97046A 12040.61653965 -.00000034 00000-0 10000-3 0 2676 2 24916 0.0131 262.5539 0002852 35.2788 232.2166 1.00272904 53073 INTELSAT 805 (IS-805) 1 25371U 98037A 12039.37109439 -.00000288 00000-0 10000-3 0 8370 2 25371 0.0063 12.5096 0002712 331.8836 231.5470 1.00270307 49999 INTELSAT 7 (IS-7) 1 25473U 98052A 12039.81027056 -.00000030 00000-0 10000-3 0 3227 2 25473 0.0111 121.3635 0002440 158.2551 219.0559 1.00273237 49081 INTELSAT 8 (IS-8) 1 25522U 98065A 12040.67263689 -.00000060 00000-0 10000-3 0 1182 2 25522 0.0466 262.0204 0003187 49.2606 236.0171 1.00272916 48668 GALAXY 26 (G-26) 1 25626U 99005A 12039.58908279 .00000111 00000-0 10000-3 0 9512 2 25626 0.0255 46.1999 0003102 289.2186 64.7218 1.00273426 47571 INSAT-2E (APR-1) 1 25666U 99016A 12040.73346718 -.00000169 00000-0 10000-3 0 8097 2 25666 0.2880 77.8558 0002702 238.7084 169.7691 1.00270813 47190 GALAXY 27 (G-27) 1 25922U 99052A 12036.89386843 .00000136 00000-0 10000-3 0 9776 2 25922 0.0111 69.1696 0006366 217.5882 215.5802 1.00275465 45299 GALAXY 11 (G-11) 1 26038U 99071A 12040.23857983 -.00000289 00000-0 10000-3 0 2602 2 26038 0.0571 277.1523 0001281 145.8292 106.0593 1.00270758 44545 GALAXY 4R (G-4R) 1 26298U 00020A 12039.53424953 -.00000180 00000-0 10000-3 0 1131 2 26298 4.9795 64.9880 0000633 34.1132 326.0801 0.99828942 43327 INTELSAT 9 (IS-9) 1 26451U 00043A 12041.10634389 -.00000289 00000-0 10000-3 0 7146 2 26451 0.0194 200.6807 0002353 128.8392 150.3407 1.00271644 42295 INTELSAT 12 (IS-12) 1 26590U 00068A 12034.80021841 .00000139 00000-0 10000-3 0 7603 2 26590 0.0160 89.4387 0005172 171.7466 205.2837 1.00274033 41290 INTELSAT 1R (IS-1R) 1 26608U 00072A 12040.24872266 -.00000286 00000-0 10000-3 0 4474 2 26608 0.0237 215.3272 0001134 215.5367 107.3900 1.00271023 41197 INTELSAT 10 (IS-10) 1 26766U 01019A 12040.53330966 -.00000029 00000-0 10000-3 0 9367 2 26766 0.0188 126.0034 0001177 105.5576 167.9412 1.00273357 39377 INTELSAT 901 (IS-901) 1 26824U 01024A 12039.09323786 -.00000143 00000-0 10000-3 0 8466 2 26824 0.0075 28.6508 0002923 286.3343 198.1796 1.00272054 39105 INTELSAT 902 (IS-902) 1 26900U 01039A 12039.85866994 .00000030 00000-0 00000+0 0 8531 2 26900 0.0203 96.8269 0003201 234.4920 178.1422 1.00271958 38283 INTELSAT 904 (IS-904) 1 27380U 02007A 12040.79467851 .00000045 00000-0 10000-3 0 9031 2 27380 0.0177 14.6675 0003160 312.2708 158.4026 1.00272820 36545 INTELSAT 903 (IS-903) 1 27403U 02016A 12039.85771211 -.00000242 00000-0 10000-3 0 6318 2 27403 0.0320 66.8107 0002805 248.5612 97.2453 1.00270795 36194 INTELSAT 905 (IS-905) 1 27438U 02027A 12040.08929019 -.00000188 00000-0 10000-3 0 4582 2 27438 0.0166 233.8165 0002608 90.0325 182.3692 1.00272153 35518 GALAXY 3C (G-3C) 1 27445U 02030A 12038.47158251 -.00000153 00000-0 10000-3 0 5220 2 27445 0.0104 192.3643 0000638 348.8262 30.5061 1.00272289 35371 INTELSAT 906 (IS-906) 1 27513U 02041A 12039.75767803 .00000011 00000-0 00000+0 0 6474 2 27513 0.0182 7.8389 0002845 306.3651 160.9567 1.00272805 34566 INTELSAT 907 (IS-907) 1 27683U 03007A 12040.08921395 -.00000206 00000-0 10000-3 0 2042 2 27683 0.0141 6.2522 0003248 312.1189 184.8136 1.00271403 32928 GALAXY 12 (G-12) 1 27715U 03013B 12038.35680939 .00000057 00000-0 10000-3 0 5189 2 27715 0.0639 239.2601 0002400 99.8695 157.1857 1.00271468 32421 GALAXY 23 (G-23) 1 27854U 03034A 12040.12895264 .00000009 00000-0 00000+0 0 4601 2 27854 0.0162 38.6291 0003079 269.6323 115.7760 1.00272833 31205 GALAXY 13 (HORIZONS-1) 1 27954U 03044A 12040.49166821 .00000044 00000-0 10000-3 0 3392 2 27954 0.0112 100.2111 0000374 263.2407 185.4981 1.00271340 30688 INTELSAT 10-02 1 28358U 04022A 12039.04552961 -.00000013 00000-0 10000-3 0 2364 2 28358 0.0283 122.4030 0000889 152.4266 238.1490 1.00273394 28055 GALAXY 28 (G-28) 1 28702U 05022A 12039.20037850 -.00000188 00000-0 10000-3 0 2207 2 28702 0.0310 81.0606 0001388 79.9922 319.7646 1.00271923 24326 GALAXY 14 (G-14) 1 28790U 05030A 12040.45609172 .00000033 00000-0 10000-3 0 2617 2 28790 0.0140 278.5909 0002850 34.3105 225.2254 1.00273819 23754 GALAXY 15 (G-15) 1 28884U 05041A 12040.49853612 .00000075 00000-0 10000-3 0 2871 2 28884 0.0112 46.4961 0002626 268.8613 230.0924 1.00272956 23182 GALAXY 16 (G-16) 1 29236U 06023A 12040.44514655 -.00000131 00000-0 10000-3 0 1323 2 29236 0.0026 330.9626 0003055 356.0933 233.1121 1.00271544 20709 GALAXY 17 (G-17) 1 31307U 07016B 12040.51099192 -.00000178 00000-0 10000-3 0 8339 2 31307 0.0081 56.3885 0003028 264.1520 271.4117 1.00272187 17518 INTELSAT 11 (IS-11) 1 32253U 07044B 12041.14110157 -.00000273 00000-0 10000-3 0 6521 2 32253 0.0264 249.2472 0003104 78.2387 179.9001 1.00270278 15978 HORIZONS-2 1 32388U 07063B 12039.90832850 -.00000186 00000-0 10000-3 0 7055 2 32388 0.0167 36.3619 0002758 235.8512 278.0430 1.00271053 15319 GALAXY 18 (G-18) 1 32951U 08024A 12041.21414427 .00000021 00000-0 10000-3 0 5866 2 32951 0.0218 133.7504 0002986 193.0589 126.9511 1.00272040 13663 INTELSAT 25 (IS-25) 1 33153U 08034A 12040.38290609 -.00000228 00000-0 10000-3 0 6404 2 33153 0.0356 278.5953 0002504 51.0364 275.5744 1.00270449 13184 INTELSAT 14 (IS-14) 1 36097U 09064A 12040.29980084 -.00000277 00000-0 00000+0 0 3564 2 36097 0.0185 109.9814 0001999 221.9686 229.7420 1.00273086 8141 INTELSAT 15 (IS-15) 1 36106U 09067A 12039.90832850 -.00000188 00000-0 10000-3 0 4816 2 36106 0.0189 35.3389 0002623 266.7923 248.4020 1.00270991 8035 INTELSAT 16 (IS-16) 1 36397U 10006A 12040.38155199 -.00000289 00000-0 10000-3 0 3766 2 36397 0.0127 254.4494 0002446 70.9046 252.7633 1.00271582 7285